Retour au catalogue

KUIPER-00094

ActifCommunicationsLEO
NORAD 64839·PAYLOAD·🇺🇸 United States

Lancé Jul 16, 2025 depuis Cape Canaveral Space Force Station

Loading…

Prochains Passages (prochaines 24 heures)

TLE

FraisSource: CelesTrak SupGP

Époque: Sep 14, 2026, 23:00 UTC

1 64839C 25151Z   26257.95868056  .00003856  00000+0  50478-3 0  2578
2 64839  51.9020 131.2437 0001171  95.1112  36.4810 14.79921569    15

Suivez KUIPER-00094 en temps réel avec AllMySat

Download on the App Store